Погода в Чилине

Россия / Томская область     55°50′05″N   83°32′00″E
темп.,
°C
ветер,
м/с
пор.,
м/с
влажн.,
%
обл.,
%
осадки,
мм/ч
давл.,
гПа
погр.,
м
29 июля, чт
чт2901:00+15ю226778 0.0 100938
04:00+13ююз227325 0.0 100924
07:00+13ю24738 0.0 100984
10:00+20ю46497 0.0 1008683
13:00+23ююз553712 0.0 10072383
16:00+22ю2552100 0.0 1007297
19:00+18всв116280 0.0 100711
22:00+15зюз1174100 0.0 100811
30 июля, пт
пт3001:00+13зсз2291100 0.2 100823
04:00+11сз229462 0.0 100926
07:00+12ссз239319 0.0 1010100
10:00+18сз33680 0.0 1011544
13:00+22зсз34425 0.0 10112308
16:00+23сз33325 0.0 10112443
19:00+22зсз34435 0.0 1012808
22:00+15зсз2268100 0.0 101419
31 июля, сб
сб3101:00+12юз2276100 0.0 101513
04:00+11ююз227631 0.0 101525
07:00+12ю2571100 0.0 1016114
10:00+19ююз475094 0.0 1015551
13:00+24ююз573651 0.0 10132084
16:00+25ююз573357 0.0 10122378
19:00+22ююз3652100 0.0 1012175
22:00+18сз1160100 0.0 101215
1 августа, вс
вс101:00+18ююв355999 0.0 101172
04:00+16юз2359100 0.0 101166
07:00+17ююз2555100 0.0 1010135
10:00+20зюз245396 0.0 1010304
13:00+24ююз344524 0.0 1010929
16:00+26юз3539100 0.0 10091744
19:00+24ссз445581 0.0 1009833
22:00+18с387921 0.0 1010268
2 августа, пн
пн201:00+13ссв369299 0.0 1009118
04:00+12ссв34935 0.0 100977
07:00+12св24875 0.0 1009113
10:00+19св216283 0.0 1008481
13:00+24юв12529 0.0 10061088
16:00+27ссз03431 0.0 10051897
19:00+27ссз2248100 0.0 1003593
22:00+17ссв2288100 0.4 100420